Regional Weather Roundup
Issued by NWS

Home | Current Version | Previous Version | Graphics & Text | Print | Product List | Glossary On
Versions: 1 2 3 4 5 6 7 8 9 10 11 12 13 14 15 16 17 18 19 20 21 22 23 24 25 26 27 28 29 30 31 32 33 34 35 36 37 38 39 40 41 42 43 44 45 46 47 48 49 50
601
ASUS44 KMEG 081410
RWRTN
TENNESSEE HOURLY STATE WEATHER ROUNDUP
NATIONAL WEATHER SERVICE MEMPHIS TN
800 AM CST THU DEC 08 2016

TNZ002-004-019-021-049-052-054-088>092-081500-
WEST TENNESSEE

CITY           SKY/WX    TMP DP  RH WIND       PRES   REMARKS
MEMPHIS INTL   CLOUDY    34  25  69 N13G20    30.48R WCI  25
NWS MEMPHIS      N/A     34 N/A N/A MISG        N/A
JACKSON        PTSUNNY   32  24  72 N14       30.45R WCI  22
DYERSBURG      CLOUDY    30  23  74 N9        30.48R WCI  22
UNION CITY     SUNNY     27  18  69 NW13      30.46R WCI  16
PARIS          SUNNY     27  16  63 N8        30.44R WCI  18
HUNTINGDON     SUNNY     32  23  69 NW6G14    30.43R WCI  26
LEXINGTON      SUNNY     32  19  59 NW12      30.40R WCI  23
$$

TNZ008-025-027-028-033-062-065-066-081500-
NORTH MIDDLE TENNESSEE

CITY           SKY/WX    TMP DP  RH WIND       PRES   REMARKS
NASHVILLE      PTSUNNY   34  19  54 NW9       30.39R WCI  27
PORTLAND       SUNNY     30  23  74 NW9G17    30.36R WCI  22
CLARKSVILLE    MOSUNNY   30  18  60 NW17      30.40R WCI  18
SMYRNA         MOSUNNY   34  22  61 NW9       30.39R WCI  27
GALLATIN       SUNNY     34  23  64 NW3       30.40R
CROSSVILLE     MOSUNNY   29  20  69 NW5       30.27R WCI  24
$$

TNZ061-075-076-078-094-096-097-081500-
SOUTH MIDDLE TENNESSEE

CITY           SKY/WX    TMP DP  RH WIND       PRES   REMARKS
FAYETTEVILLE   SUNNY     36  25  64 VRB6      30.34R WCI  31
TULLAHOMA      SUNNY     30  21  69 N7        30.34R WCI  23
WINCHESTER     SUNNY     34  25  69 N6        30.35R WCI  29
MCMINNVILLE    SUNNY     32  21  64 CALM        N/A
COLUMBIA       SUNNY     34  25  69 N3        30.36R
SHELBYVILLE    SUNNY     34  25  69 NW5       30.37R WCI  30
$$

TNZ017-018-042-046-047-081500-
NORTHEAST TENNESSEE

CITY           SKY/WX    TMP DP  RH WIND       PRES   REMARKS
TRI CITIES     CLOUDY    38  21  50 NW12      30.20R WCI  30
ELIZABETHTON   DRIZZLE   39  27  60 W12       30.18R WCI  32
$$

TNZ012-013-036-069-073-074-081500-
CENTRAL EAST TENNESSEE

CITY           SKY/WX    TMP DP  RH WIND       PRES   REMARKS
KNOXVILLE      PTSUNNY   39  19  44 N6        30.28R WCI  35
OAK RIDGE      PTSUNNY   39  19  44 VRB3      30.30R
DOWNTOWN KNOXV SUNNY     39  23  52 CALM      30.30R
GATLINBURG     MOSUNNY   36  19  51 NW6       30.28R WCI  31
MORRISTOWN     MOSUNNY   36  18  48 VRB6      30.25R WCI  31
JACKSBORO      SUNNY     34  21  60 CALM      30.31R
$$

TNZ083-085-099-081500-
SOUTHEAST TENNESSEE

CITY           SKY/WX    TMP DP  RH WIND       PRES   REMARKS
CHATTANOOGA    CLOUDY    40  20  44 N16       30.31R WCI  31
$$

SKY/WX REPORTED AS FAIR MEANS FEW OR NO CLOUDS BELOW
12 THOUSAND FEET.





USA.gov is the U.S. government's official web portal to all federal, state and local government web resources and services.